Probability
0 0 0 0 0 0 0 0 0 0 0 0 0 0 0 0 0 0 0 0 0 0 0 1 3 3 3 3 2 0 0 0 0 0 0 0 0 0 0 0 0 0 0
0 0 0 0 0 0 0 0 0 0 0 0 0 0 0 0 0 0 0 0 0 0 0 1 2 3 3 4 3 1 1 0 0 0 0 0 0 0 0 0 0 0 0
0 0 0 0 0 0 0 0 0 0 0 0 0 0 0 0 0 0 0 0 0 0 0 0 1 2 2 3 4 4 3 1 0 0 0 0 0 0 0 0 0 0 0
0 0 0 0 0 0 0 0 0 0 0 0 0 0 0 0 0 0 0 0 0 0 0 0 0 0 0 2 5 5 4 3 1 0 0 0 0 0 0 0 0 0 0
0 0 0 0 0 0 0 0 0 0 0 0 0 0 0 0 0 0 0 0 0 0 0 0 0 0 0 1 3 3 3 3 3 1 0 0 0 0 0 0 0 0 0
0 0 0 0 0 0 0 0 0 0 0 0 0 0 0 0 0 0 0 0 0 0 0 0 0 0 0 0 1 1 2 3 3 1 0 0 0 0 0 0 0 0 0
0 0 0 0 0 0 0 0 0 0 0 0 0 0 0 0 0 0 0 0 0 0 0 0 0 0 0 0 0 0 2 2 2 0 0 0 0 0 0 0 0 0 0
0 0 0 0 0 0 0 0 0 0 0 0 0 0 0 0 0 0 0 0 0 0 0 0 0 0 0 0 0 0 1 1 0 0 0 0 0 0 0 0 0 0 0
0 0 0 0 0 0 0 0 0 0 0 0 0 0 0 0 0 0 0 0 0 0 0 0 0 0 0 0 0 0 0 0 0 0 0 0 0 0 0 0 0 0 0
0 0 0 0 0 0 0 0 0 0 0 0 0 0 0 0 0 0 0 0 0 0 0 0 0 0 0 0 0 0 0 0 0 0 0 0 0 0 0 0 0 0 0
0 0 0 0 0 0 0 0 0 0 0 0 0 0 0 0 0 0 0 0 0 0 0 0 0 0 0 0 0 0 0 0 0 0 0 0 0 0 0 0 0 0 0
0 0 0 0 0 0 0 0 0 0 0 0 0 0 0 0 0 0 0 0 0 0 0 0 0 0 0 0 0 0 0 0 0 0 0 0 0 0 0 0 0 0 0
0 0 0 0 0 0 0 0 0 0 0 0 0 0 0 0 0 0 0 0 0 0 0 0 0 0 0 0 0 0 0 0 0 0 0 0 0 0 0 0 0 0 0
0 0 0 0 0 0 0 0 0 0 0 0 0 0 0 0 0 0 0 0 0 0 0 0 0 0 0 0 0 0 0 0 0 0 0 0 0 0 0 0 0 0 0
0 0 0 0 0 0 0 0 0 0 0 0 0 0 0 0 0 0 0 0 0 0 0 0 0 0 0 0 0 0 0 0 0 0 0 0 0 0 0 0 0 0 0
0 0 0 0 0 0 0 0 0 0 0 0 0 0 0 0 0 0 0 0 0 0 0 0 0 0 0 0 0 0 0 0 0 0 0 0 0 0 0 0 0 0 0
0 0 0 0 0 0 1 2 1 1 0 0 0 0 0 0 0 0 0 0 0 0 0 0 0 0 0 0 0 0 0 0 0 0 0 0 0 0 0 0 0 0 0
0 1 2 4 4 7 10 9 6 5 4 3 1 0 0 0 0 0 0 0 0 0 0 0 0 0 0 0 0 0 0 0 0 0 0 0 0 0 0 0 0 0 0
0 2 11 22 29 35 37 32 25 24 23 17 9 4 1 0 0 0 0 0 0 1 1 0 0 0 0 0 0 0 0 0 0 0 0 0 0 0 0 0 0 0 0
1 4 19 44 64 74 74 67 61 58 52 40 28 17 7 2 0 1 1 1 3 6 7 4 2 1 0 0 0 0 0 0 0 0 0 0 0 0 0 0 0 0 0
4 5 18 44 71 89 94 93 89 82 71 59 47 34 18 7 2 4 6 7 14 24 24 17 10 3 0 0 0 0 0 0 0 0 0 0 0 0 0 0 0 0 0
8 7 12 31 59 83 94 96 91 81 70 63 58 50 35 17 7 8 14 20 32 44 41 28 15 5 0 0 0 0 0 0 0 0 0 0 0 0 0 0 0 0 0
12 9 10 25 52 75 85 85 78 65 53 51 57 59 48 28 15 15 21 30 41 48 41 26 13 4 0 0 0 0 0 0 0 0 0 0 0 0 0 0 0 0 0
14 10 9 19 38 56 63 64 59 45 31 29 42 53 48 33 25 25 27 30 35 37 29 17 8 3 0 0 0 0 0 0 0 0 0 0 0 0 0 0 0 0 0
19 13 9 13 24 32 37 41 38 25 16 17 28 41 42 36 34 33 31 28 25 22 17 10 5 3 1 0 0 0 0 0 0 0 0 0 0 0 0 0 0 0 0
27 18 11 13 20 22 22 25 24 16 12 16 25 34 39 40 39 36 33 27 19 13 9 6 4 3 1 0 0 0 0 0 0 0 0 0 0 0 0 0 0 0 0
Wind_Speed
12 14 15 13 12 10 9 8 8 8 9 9 9 9 9 10 11 11 11 11 10 10 9 9 9 8 8 8 8 9 9 8 7 7 8 8 8 7 6 5 5 6 8
16 15 14 13 12 10 9 8 8 8 9 9 9 9 9 10 11 11 10 10 9 9 9 9 10 9 9 8 8 8 8 7 6 6 6 7 7 7 7 8 10 7 9
17 15 13 12 11 10 9 9 8 8 8 9 9 9 9 10 11 10 10 9 8 8 9 9 11 11 10 10 10 9 8 5 3 2 1 3 5 7 7 8 9 10 9
16 14 12 12 11 10 10 9 9 8 8 8 9 9 9 10 10 9 9 8 8 8 9 10 11 11 11 11 11 9 7 4 4 4 1 3 4 7 7 7 8 9 9
14 13 14 13 10 10 9 9 9 8 8 8 8 8 9 9 10 9 9 8 8 8 8 9 10 11 11 12 11 9 7 5 6 4 5 6 5 6 7 7 7 7 7
13 14 14 13 11 10 9 8 8 8 9 9 9 9 9 9 10 9 8 8 7 7 7 8 9 10 11 11 10 8 7 7 6 5 6 5 4 7 7 6 6 7 7
13 14 13 13 11 10 9 8 8 9 9 9 9 9 10 10 10 9 8 7 7 6 6 6 7 9 10 9 8 7 7 9 2 6 6 5 5 8 7 6 6 6 6
13 13 12 12 11 10 9 9 9 9 10 10 10 10 10 10 10 9 8 7 6 6 6 6 8 8 9 8 7 6 7 9 3 8 7 5 8 9 8 7 7 6 6
12 11 12 11 10 9 10 10 10 10 10 10 10 11 11 11 10 9 8 7 7 6 6 7 8 8 7 6 4 3 6 9 5 4 8 5 8 9 8 8 8 7 7
11 10 11 12 12 10 9 10 11 11 11 11 11 11 12 11 10 10 9 7 7 7 7 7 7 6 5 4 2 2 5 8 3 7 5 5 8 8 8 8 8 8 7
11 10 10 10 10 11 11 11 10 10 10 10 9 11 11 7 7 7 9 8 8 8 7 6 6 6 5 4 4 4 4 2 4 6 5 6 7 7 7 7 7 7 7
11 12 10 11 10 9 9 9 7 7 7 7 6 7 6 5 5 8 10 9 8 8 7 6 6 6 6 4 5 5 2 2 5 5 4 6 6 6 7 7 7 6 6
9 10 12 11 11 9 7 7 4 4 5 6 8 8 5 5 6 7 4 5 5 6 5 5 5 5 5 2 3 3 4 5 4 4 5 7 6 7 8 8 7 7 6
9 7 11 12 11 11 9 6 5 4 4 3 6 8 5 4 5 6 4 5 5 4 3 4 4 4 4 3 4 6 6 5 4 4 4 8 8 9 10 10 10 10 9
11 8 7 10 11 9 8 6 7 5 5 5 4 5 6 4 5 5 4 4 5 4 3 3 1 2 4 5 5 6 7 7 7 6 4 11 11 11 11 11 12 12 11
11 11 8 9 10 10 8 7 6 5 4 4 4 4 6 4 4 5 4 4 3 4 4 2 3 2 3 4 5 4 5 6 7 6 5 8 14 13 12 12 13 13 12
12 12 11 8 10 11 10 8 6 6 6 4 4 5 6 5 5 5 4 4 3 4 4 2 3 3 4 3 4 5 4 4 7 7 6 5 7 12 14 15 15 14 14
11 11 12 10 9 8 7 7 6 6 7 5 5 4 6 6 5 5 4 4 4 4 3 3 3 2 3 3 3 3 3 1 4 6 6 5 5 6 9 14 14 14 14
9 10 12 10 9 8 7 6 5 5 6 5 5 4 4 6 6 5 4 4 5 3 3 4 3 2 3 3 3 2 2 2 1 2 5 6 5 6 4 7 12 12 12
5 6 8 9 8 7 6 4 3 3 3 2 3 4 5 3 5 4 4 4 5 4 3 3 4 2 3 3 3 3 2 1 3 4 3 4 4 6 6 6 5 7 12
3 1 3 5 6 5 4 3 2 2 4 3 3 5 4 3 3 3 4 4 3 5 5 4 3 3 2 2 3 2 0 0 4 1 1 3 4 4 4 4 4 4 5
5 3 1 3 3 4 4 4 2 2 3 4 4 5 5 5 4 3 5 3 3 4 5 4 4 2 2 2 3 3 1 0 1 2 2 2 4 2 4 6 4 4 5
6 5 3 3 5 5 5 3 2 1 1 2 4 4 5 6 6 5 5 5 4 4 4 4 4 4 2 2 2 4 3 3 2 2 4 2 3 2 0 2 4 5 7
7 6 6 3 5 6 5 3 3 3 4 4 4 5 6 7 6 6 5 5 5 4 5 5 5 4 4 4 4 4 4 4 4 2 2 3 5 4 3 1 2 4 7
8 5 6 5 5 6 4 4 3 3 4 4 4 6 6 5 6 6 6 6 6 5 6 6 6 6 5 5 5 5 3 2 3 4 3 3 2 3 4 4 3 3 5
7 6 6 6 6 4 2 3 5 5 4 3 2 3 4 3 4 6 7 6 7 6 7 7 7 8 7 7 6 6 4 3 2 2 3 4 4 4 4 3 4 3 4
Wind_Direction
127 128 137 137 138 136 131 124 119 115 113 114 115 115 114 110 105 100 98 93 86 79 74 70 68 70 74 77 82 86 85 83 85 94 101 94 87 82 74 51 34 82 75
124 127 138 137 139 140 137 133 128 124 120 119 119 118 118 115 111 107 101 94 87 81 76 73 72 70 73 77 82 86 83 77 76 91 107 101 91 83 74 62 64 75 75
120 128 137 138 139 140 142 141 137 132 127 124 123 122 122 122 119 113 106 99 92 85 81 77 76 71 72 73 74 75 75 69 44 34 53 107 105 86 75 70 72 75 77
126 137 138 138 139 141 147 148 145 141 136 131 127 127 128 129 126 117 108 102 96 89 85 81 79 75 72 70 68 67 62 43 358 338 5 88 94 91 81 77 76 78 81
126 130 128 140 141 144 150 154 152 150 146 141 135 133 132 132 128 119 110 104 100 94 89 86 82 78 72 69 65 59 46 21 347 14 68 82 80 92 84 82 80 83 89
124 122 132 141 144 147 152 156 156 155 153 149 143 139 133 131 127 122 115 108 103 98 93 87 86 84 76 70 62 48 24 5 351 61 61 80 85 88 89 87 85 86 93
126 126 136 142 146 149 151 154 157 157 154 149 145 139 134 133 129 126 119 111 106 103 96 88 93 90 81 71 58 35 4 343 11 84 74 72 76 86 90 93 92 91 95
125 129 133 143 147 150 152 154 156 154 152 148 143 138 135 133 132 128 120 114 111 106 94 91 95 91 81 70 54 19 343 329 51 99 87 76 80 82 86 89 93 94 97
129 135 142 148 151 151 151 153 153 152 149 145 139 136 135 133 133 129 123 121 119 112 102 98 98 93 85 78 56 350 325 328 325 118 100 79 79 80 82 83 86 87 89
141 147 152 155 154 154 151 152 150 149 147 143 138 138 138 138 139 139 134 131 130 122 113 111 114 112 112 116 135 283 305 313 336 84 90 87 82 82 80 80 82 83 84
151 152 155 154 155 153 149 146 148 147 147 145 142 146 149 155 153 158 128 140 138 130 128 141 156 157 157 172 196 233 281 257 84 77 72 90 91 89 86 84 84 86 86
161 163 159 152 148 147 139 142 153 155 153 170 158 165 185 176 151 126 131 141 141 144 157 183 199 193 192 198 207 216 253 67 85 89 76 87 99 100 98 93 90 90 94
167 165 161 155 150 138 130 150 152 152 167 186 168 179 196 154 129 122 147 142 153 166 190 188 219 223 208 195 159 131 63 57 68 76 71 79 93 98 98 94 92 91 95
156 160 157 152 147 148 150 150 154 162 176 186 183 183 174 157 153 153 161 171 170 192 205 200 218 220 185 165 123 107 85 78 74 75 70 78 84 88 89 86 83 81 82
150 159 154 147 149 152 147 154 169 169 174 187 190 181 161 166 162 158 171 167 185 167 188 239 217 53 54 51 73 92 99 97 91 79 71 80 82 83 88 89 86 83 79
155 161 152 153 148 152 156 173 166 168 169 180 172 190 169 174 163 161 165 168 189 151 175 199 115 101 74 59 57 66 97 109 107 107 96 80 79 81 82 85 84 81 78
161 162 157 169 162 165 167 175 163 169 171 181 173 198 180 181 176 167 164 170 178 153 173 164 127 105 102 106 85 65 55 86 130 129 123 112 86 75 80 82 81 79 76
162 160 159 174 173 169 163 172 171 178 171 174 169 196 190 188 193 172 160 168 176 164 152 122 122 120 125 135 120 110 100 47 100 137 142 136 124 98 80 83 81 77 73
153 156 162 170 171 170 172 179 172 176 170 169 163 175 198 193 194 172 166 168 172 152 138 146 148 153 144 119 97 75 91 90 43 108 120 119 126 125 115 97 90 82 74
141 162 161 160 168 168 168 180 149 128 136 146 147 169 192 196 198 170 159 186 165 143 138 142 138 134 124 134 144 109 72 106 76 42 72 108 115 121 141 140 118 91 80
125 136 134 146 165 152 139 146 149 152 150 161 168 179 183 199 216 174 162 186 159 146 148 148 127 136 131 151 113 110 181 322 103 151 116 103 102 126 149 136 137 133 101
126 100 59 141 142 132 128 140 163 188 190 178 176 182 184 197 209 199 165 149 131 136 142 138 123 141 174 176 140 141 174 354 303 158 98 144 155 172 155 146 137 129 121
117 123 87 65 100 94 111 116 137 163 235 197 179 190 193 203 210 192 184 156 142 141 148 147 141 154 183 248 189 158 169 192 188 178 196 199 133 134 205 111 147 128 112
125 129 126 111 116 118 127 148 169 179 200 206 193 193 198 206 207 197 189 170 164 159 163 173 166 165 166 220 255 221 187 165 163 171 212 197 167 179 151 94 67 106 112
125 125 118 119 105 118 146 156 179 212 219 221 201 185 196 202 202 195 194 187 187 180 182 187 182 180 183 196 233 248 237 191 194 143 179 202 179 181 169 173 153 113 117
114 114 114 118 101 105 135 172 189 208 214 205 185 170 185 182 198 205 203 201 199 195 198 199 195 191 192 200 217 243 224 193 217 167 163 181 185 198 175 157 156 137 128